Location: Miles
(41.4492°N, 81.6087°W)
Time: 10:22:48
(UTC+00:00)

Transit 2A Rocket - All Passes

Search period start: 07 September 2024 00:00
Search period end: 17 September 2024 00:00
Orbit: 582 x 910 km, 66.7° (Epoch: 06 September)

Date Brightness Start Highest point End Pass type
(mag) Time Alt. Az. Time Alt. Az. Time Alt. Az.
07 Sep - 05:15:45 10° SE 05:19:10 16° ESE 05:22:42 10° ENE visible
07 Sep - 06:55:04 10° SSW 07:00:54 80° WNW 07:07:01 10° NNE visible
07 Sep - 08:40:24 10° W 08:44:25 18° NW 08:48:30 10° N visible
07 Sep - 13:57:17 10° N 14:01:09 18° NE 14:04:52 10° E daylight
07 Sep - 15:38:47 10° NNW 15:44:40 83° ENE 15:50:03 10° SSE daylight
07 Sep - 17:23:29 10° WNW 17:26:15 14° W 17:28:55 10° SW daylight
08 Sep - 06:10:57 10° SSW 06:16:39 62° ESE 06:22:39 10° NE visible
08 Sep - 07:54:42 10° WSW 07:59:39 27° NW 08:04:44 10° N visible
08 Sep - 13:13:58 10° N 13:16:14 12° NNE 13:18:25 10° NE daylight
08 Sep - 14:54:34 10° NNW 15:00:17 50° NE 15:05:32 10° SE daylight
08 Sep - 16:37:47 10° NW 16:42:24 25° WSW 16:46:42 10° SSW daylight
09 Sep - 05:27:19 10° S 05:32:33 36° ESE 05:38:01 10° NE visible
09 Sep - 07:09:29 10° WSW 07:15:01 41° NW 07:20:45 10° NNE visible
09 Sep - 08:57:55 10° NW 08:59:17 11° NNW 09:00:39 10° NNW visible
09 Sep - 14:10:31 10° NNW 14:15:43 31° NE 14:20:34 10° ESE daylight
09 Sep - 15:52:56 10° NW 15:58:24 45° WSW 16:03:25 10° S daylight
10 Sep - 04:44:22 10° SSE 04:48:35 21° ESE 04:52:57 10° ENE visible
10 Sep - 06:24:43 10° SW 06:30:32 65° WNW 06:36:37 10° NNE visible
10 Sep - 08:10:49 10° WNW 08:14:17 15° NW 08:17:47 10° N visible
10 Sep - 13:26:38 10° N 13:30:59 21° NE 13:35:07 10° E daylight
10 Sep - 15:08:25 10° NNW 15:14:15 79° WSW 15:19:33 10° SSE daylight
11 Sep - 04:03:00 10° ESE 04:04:45 11° E 04:06:30 10° E night (unlit)
11 Sep - 05:40:23 10° SSW 05:46:12 78° ESE 05:52:18 10° NNE visible
11 Sep - 07:24:49 10° W 07:29:25 23° NW 07:34:07 10° N visible
11 Sep - 12:43:04 10° N 12:46:05 14° NE 12:49:02 10° ENE daylight
11 Sep - 14:24:06 10° NNW 14:29:55 62° ENE 14:35:12 10° SE daylight
11 Sep - 16:07:51 10° WNW 16:11:47 19° WSW 16:15:29 10° SSW daylight
12 Sep - 04:56:30 10° S 05:02:01 46° ESE 05:07:47 10° NE visible
12 Sep - 06:39:22 10° WSW 06:44:42 34° NW 06:50:12 10° NNE visible
12 Sep - 13:39:58 10° NNW 13:45:24 38° NE 13:50:25 10° ESE daylight
12 Sep - 15:22:42 10° NW 15:27:50 35° WSW 15:32:34 10° S daylight
13 Sep - 04:13:11 10° SSE 04:17:58 27° ESE 04:22:56 10° NE visible
13 Sep - 05:54:23 10° SW 06:00:08 53° NW 06:06:07 10° NNE visible
13 Sep - 07:41:20 10° WNW 07:44:07 13° NNW 07:46:54 10° N visible
13 Sep - 12:55:59 10° N 13:00:43 24° NE 13:05:10 10° E daylight
13 Sep - 14:38:03 10° NW 14:43:43 62° WSW 14:48:55 10° SSE daylight
14 Sep - 03:30:50 10° SE 03:34:03 15° ESE 03:37:21 10° ENE night (unlit)
14 Sep - 05:09:51 10° SSW 05:15:44 85° WNW 05:21:52 10° NNE visible
14 Sep - 06:55:00 10° W 06:59:10 19° NW 07:03:25 10° N visible
14 Sep - 12:12:14 10° N 12:15:52 17° NE 12:19:22 10° ENE daylight
14 Sep - 13:53:37 10° NNW 13:59:27 78° ENE 14:04:45 10° SE daylight
14 Sep - 15:38:06 10° WNW 15:41:05 15° WSW 15:43:56 10° SW daylight
15 Sep - 04:25:45 10° SSW 04:31:27 58° ESE 04:37:25 10° NE visible
15 Sep - 06:09:18 10° WSW 06:14:23 28° NW 06:19:34 10° NNE visible
15 Sep - 11:29:05 10° NNE 11:30:52 11° NNE 11:32:38 10° NE daylight
15 Sep - 13:09:23 10° NNW 13:15:00 46° NE 13:20:08 10° SE daylight
15 Sep - 14:52:31 10° NW 14:57:10 27° WSW 15:01:31 10° SSW daylight
16 Sep - 03:42:08 10° S 03:47:19 34° ESE 03:52:43 10° NE visible
16 Sep - 05:24:07 10° WSW 05:29:44 43° NW 05:35:32 10° NNE visible
16 Sep - 07:12:09 10° NW 07:13:55 11° NNW 07:15:42 10° NNW visible
16 Sep - 12:25:20 10° NNW 12:30:22 29° NE 12:35:04 10° ESE daylight
16 Sep - 14:07:39 10° NW 14:13:08 48° WSW 14:18:07 10° S daylight
